Theta_e
320 318 316 314 313 312 311 311 312 313 314 315 316 318 318 319 319 318 319 319 318 318 319 318 317 318 319 319 317 319 321 324 324 325 325 326 327 328 328 328 329 328 328 330 328 322 321 320 320 318 317 314 312 310 308 307 304 301 299 299 298 296 296 296 296 295 292 291 292 292 291 292 292 292 292 293 293 293 294 293 293 293 294 293 294
321 316 314 313 312 312 311 310 310 311 312 313 314 316 318 318 318 318 318 318 318 318 319 318 318 317 317 317 317 319 320 321 321 322 323 324 325 326 327 328 329 327 325 325 324 323 321 319 319 317 316 314 313 311 309 305 303 300 299 297 298 296 294 295 295 294 291 289 287 288 289 290 291 290 290 291 292 293 294 294 294 293 293 293 293
315 314 314 312 313 311 310 310 310 311 312 312 313 315 316 317 318 318 318 317 318 319 318 317 317 318 318 319 318 318 321 323 323 323 322 321 322 322 323 323 325 326 324 323 322 321 320 319 317 317 316 314 311 310 309 305 301 299 298 297 295 296 295 296 294 295 292 291 291 288 286 286 288 288 289 289 290 291 292 293 293 293 293 293 293
312 313 313 311 312 310 309 309 309 310 311 311 312 313 315 316 317 317 317 318 318 318 317 318 318 318 319 320 320 319 317 314 314 317 319 319 318 318 319 319 322 323 323 322 322 321 320 319 318 317 315 314 312 309 306 303 300 298 298 297 296 293 293 293 295 296 295 291 287 289 288 289 285 285 286 287 290 290 291 291 292 292 292 293 293
312 313 313 311 310 309 309 309 309 309 310 311 312 313 314 315 317 317 317 317 318 318 317 318 318 317 317 314 315 312 312 312 312 312 314 314 317 314 314 315 318 319 321 321 321 320 319 319 317 316 315 313 311 308 305 302 300 300 299 297 296 294 292 293 295 297 299 296 295 292 289 289 291 290 286 286 288 288 290 290 291 291 291 291 291
312 311 312 313 310 310 309 309 309 309 309 311 312 313 314 315 316 317 317 317 317 318 318 317 316 315 311 310 310 311 310 309 309 310 310 312 314 314 311 313 315 316 318 318 320 320 319 318 317 315 314 312 311 309 306 304 300 299 299 298 297 297 295 293 293 298 301 298 303 303 301 294 293 288 288 284 286 289 289 290 290 291 292 291 291
314 313 312 312 312 310 309 309 309 309 309 311 312 313 314 315 316 316 316 316 317 317 317 316 315 314 313 312 311 311 311 311 313 315 314 312 312 310 311 310 311 313 315 316 317 317 319 318 317 316 314 312 309 308 305 302 300 300 300 299 298 298 298 295 295 297 298 300 302 301 300 298 296 289 288 287 283 287 288 288 288 290 290 290 290
313 312 312 311 311 310 309 309 309 309 310 310 311 312 312 314 315 315 315 316 316 317 316 315 314 314 312 312 312 312 314 314 314 315 314 312 311 309 308 307 308 310 311 313 315 315 316 316 316 314 313 312 309 308 306 304 302 301 301 300 299 299 298 297 297 298 295 296 299 298 295 298 297 301 299 291 289 284 284 287 289 288 289 289 290
311 312 311 310 310 310 309 309 310 309 310 309 310 311 312 313 314 314 315 315 315 316 315 315 313 313 313 312 312 314 315 316 316 315 312 311 311 307 305 306 306 306 308 309 310 312 312 315 315 314 313 312 309 309 306 304 302 301 300 299 298 299 299 300 300 298 297 298 297 297 297 297 297 300 300 297 292 288 285 284 285 287 288 288 288
310 309 309 310 310 309 309 309 309 309 310 311 310 311 312 312 313 313 313 314 314 315 314 314 313 312 312 312 312 313 314 316 316 313 313 310 309 306 305 304 304 304 304 305 306 307 308 309 312 313 313 312 309 310 306 304 303 301 300 300 300 300 300 301 302 300 299 300 298 298 296 295 294 293 294 295 296 295 288 285 285 283 282 285 288
311 310 309 309 308 307 306 306 307 308 309 309 310 310 311 311 312 312 312 314 314 314 313 312 312 312 311 312 313 313 314 315 314 312 311 309 309 308 304 303 303 302 302 302 302 302 303 304 308 311 311 312 310 311 309 306 304 302 301 301 302 302 302 303 303 302 300 301 299 298 297 295 293 291 290 291 291 291 290 287 286 285 285 285 286
309 309 309 308 306 305 305 305 305 306 307 307 308 309 310 311 311 311 312 312 313 313 312 311 311 311 311 312 312 313 315 312 311 310 309 308 308 306 304 303 302 301 300 300 299 299 300 300 302 305 307 308 309 310 309 307 305 304 302 301 303 303 303 303 303 302 301 301 300 299 298 298 297 295 294 293 291 291 291 288 286 286 287 287 288
309 310 310 310 310 308 305 305 305 305 305 306 307 308 309 310 310 310 310 311 312 312 311 311 310 310 311 311 312 313 313 311 309 309 311 307 307 305 303 302 301 302 300 300 299 298 298 298 298 300 303 305 306 307 307 306 305 304 303 302 302 302 303 304 303 302 302 299 299 298 299 297 297 299 299 294 295 296 292 288 288 287 285 286 286
310 310 311 311 311 312 310 308 306 306 306 306 306 307 309 309 310 309 310 311 311 312 311 310 310 310 311 311 311 312 312 311 309 308 307 307 307 306 304 302 303 304 301 299 298 298 297 299 300 300 302 303 303 305 304 303 303 303 302 301 301 302 303 303 303 302 301 301 299 296 296 296 294 296 296 297 294 292 290 288 286 287 288 286 286
311 310 310 310 311 311 310 309 308 307 306 306 306 307 308 308 308 308 309 310 311 311 310 309 310 310 310 311 311 311 311 310 309 308 307 306 306 305 305 305 303 304 303 302 300 298 298 297 299 299 299 301 300 302 302 302 302 302 301 300 301 301 301 301 300 299 299 297 296 295 294 293 292 292 294 294 295 294 292 289 286 283 283 285 284
309 310 311 311 311 310 309 308 307 307 306 306 306 307 307 308 308 308 309 310 310 310 309 309 309 309 309 309 309 310 310 309 308 308 307 306 306 306 306 305 304 304 303 302 302 300 297 296 296 297 298 299 298 299 300 301 300 299 297 297 298 298 298 299 298 298 297 296 295 294 292 291 291 291 292 291 291 291 291 290 289 286 283 281 283
309 310 310 311 310 308 307 307 306 306 306 306 306 307 307 308 308 308 308 309 310 310 309 309 308 308 308 308 308 309 309 307 307 308 307 305 306 306 306 306 306 305 303 301 300 297 297 296 296 295 295 296 296 297 297 297 297 297 298 297 298 295 297 297 296 296 295 294 293 293 291 290 289 289 288 289 289 288 290 289 290 288 288 285 282
311 311 312 311 310 308 306 306 306 306 306 306 306 307 308 308 308 308 308 308 309 310 309 308 308 308 308 308 308 308 309 307 308 308 307 305 305 305 305 305 304 303 301 300 299 295 295 294 295 293 293 293 294 294 294 294 294 295 296 296 296 295 296 295 294 294 293 292 292 291 289 288 288 288 288 287 288 288 288 288 286 286 287 285 285
311 310 310 310 309 308 306 305 305 305 305 306 306 307 308 308 308 308 308 308 309 310 309 309 308 308 308 308 307 307 308 307 307 307 306 304 304 304 304 304 303 302 299 295 293 293 293 291 292 292 291 291 292 292 294 294 294 294 294 294 293 294 294 293 293 292 292 291 290 289 289 287 288 288 287 287 287 287 287 287 285 286 285 284 284
313 311 312 313 312 309 307 305 304 304 304 305 306 306 306 307 307 308 308 309 309 309 308 307 308 307 307 307 307 307 307 306 306 305 303 303 304 303 302 301 301 300 297 295 293 292 291 290 290 290 290 291 291 291 292 293 293 294 294 294 293 293 292 291 290 290 290 290 289 287 287 287 287 287 286 286 286 286 286 286 285 285 285 284 284
313 315 313 314 311 308 306 305 305 304 304 304 305 305 306 307 307 307 307 308 308 308 308 307 307 306 306 305 306 306 304 304 303 303 302 302 302 300 300 299 297 296 296 294 292 291 290 290 289 289 289 290 290 290 291 291 292 292 293 292 291 292 291 289 288 288 289 288 287 286 286 286 286 285 285 285 285 285 285 285 285 285 284 284 285
311 312 313 313 309 306 305 304 303 303 302 302 303 304 305 305 306 307 307 308 307 307 307 307 306 306 305 305 305 305 304 302 302 301 301 300 300 299 298 296 295 295 294 292 291 291 290 289 289 289 289 289 289 289 290 290 291 291 291 291 290 290 289 287 287 286 286 287 286 285 284 284 285 284 284 283 283 283 283 283 282 283 283 284 284
311 311 310 310 308 306 304 303 302 302 302 302 302 302 303 304 305 306 306 306 307 308 308 307 306 305 304 304 304 303 301 301 301 300 300 299 298 296 295 295 294 293 292 292 292 290 289 289 288 288 288 288 288 288 289 289 290 289 289 289 290 289 288 286 286 285 286 286 285 284 283 284 285 283 282 282 282 282 282 282 281 281 280 282 283
308 308 307 306 305 304 302 301 301 301 301 301 301 302 303 303 304 305 305 305 306 307 307 306 305 304 304 303 303 303 300 300 300 301 301 299 297 294 293 293 293 291 290 291 291 290 289 288 287 287 287 287 287 287 288 288 289 289 289 288 288 288 288 287 286 285 284 284 284 283 283 283 283 282 281 281 281 281 281 281 281 281 280 281 281
309 308 307 306 304 302 302 303 302 302 301 301 301 301 302 302 303 303 304 305 305 306 305 305 304 303 303 302 302 301 299 298 298 298 299 298 297 294 292 292 292 290 290 290 289 289 288 287 286 286 286 286 287 287 287 287 288 288 288 288 288 287 287 286 285 284 285 284 284 283 282 282 282 281 281 280 280 280 280 280 280 281 280 281 282
310 309 308 307 306 305 304 303 303 302 302 301 301 301 301 302 302 303 303 303 304 304 304 303 303 302 302 301 301 300 298 297 296 295 295 295 295 294 292 291 291 290 290 290 288 288 288 286 286 286 286 286 286 286 286 287 287 287 287 287 287 287 286 285 284 284 284 284 283 283 282 282 282 281 281 280 280 280 280 280 280 281 281 281 281
308 308 309 309 308 306 305 304 303 302 302 302 302 301 301 301 301 301 302 302 303 303 303 302 302 302 301 300 300 299 297 297 296 295 295 294 294 293 291 290 290 289 289 288 287 287 287 287 286 286 286 285 285 285 286 286 286 286 286 286 286 285 285 284 284 284 283 283 284 283 282 282 282 282 281 280 280 280 281 280 281 281 281 281 281
305 305 306 306 307 306 305 304 303 302 302 302 302 302 301 300 300 300 300 301 302 302 301 301 301 301 300 299 299 299 297 297 296 295 294 294 293 290 289 289 289 289 288 287 287 286 287 286 286 286 286 285 285 285 285 285 285 286 285 285 285 284 283 283 283 283 283 283 283 283 282 282 282 282 281 281 282 281 281 280 281 281 281 281 280
306 307 308 308 307 306 306 306 305 303 302 301 300 300 300 300 300 299 299 300 301 301 300 300 300 299 300 300 299 298 297 296 295 294 294 294 292 289 288 288 288 288 288 287 287 286 286 285 285 285 285 285 285 285 285 284 284 284 285 284 284 284 283 282 282 281 282 282 281 281 281 281 282 283 284 283 283 283 281 281 282 281 281 281 281
307 308 309 310 308 307 307 307 306 304 302 301 300 299 299 298 298 299 299 299 300 299 299 298 298 298 299 299 299 297 296 294 294 293 293 294 292 289 288 287 286 287 286 286 285 285 285 285 285 284 284 285 284 285 285 286 287 284 284 285 284 283 282 282 281 280 280 280 280 280 281 282 283 282 283 284 284 284 284 283 283 282 282 281 281
309 308 308 309 309 309 308 307 306 306 305 303 302 301 300 298 298 298 298 298 299 298 298 298 297 298 298 298 298 296 294 293 293 293 293 293 290 287 287 286 286 286 285 285 284 284 283 283 283 283 283 284 284 284 286 288 288 288 285 284 283 283 283 282 281 281 279 279 279 279 280 282 282 282 281 283 283 283 283 283 284 284 284 283 281
307 308 308 309 309 309 308 307 306 306 305 304 303 302 299 298 298 297 298 298 297 297 297 297 297 297 297 297 296 294 293 292 292 292 292 290 288 287 286 285 285 285 285 285 284 283 283 283 284 283 283 283 283 285 288 288 289 289 287 284 284 283 283 282 281 281 280 279 279 278 279 280 279 279 280 281 282 283 284 284 284 284 284 285 285
306 306 307 307 308 308 309 309 308 307 305 305 304 301 299 299 298 297 297 296 296 296 296 296 296 296 296 296 295 293 292 291 291 289 289 288 287 286 286 285 284 285 284 284 283 283 283 283 283 283 282 282 282 285 288 289 289 289 288 286 284 284 283 282 281 281 280 279 279 278 278 279 280 282 281 281 281 281 283 283 284 284 284 285 285
306 307 307 307 308 309 310 310 309 308 307 306 303 302 300 299 298 297 296 295 295 295 295 295 295 295 295 295 294 290 290 290 289 288 288 287 286 285 285 285 285 284 284 283 284 283 283 282 282 282 282 282 282 285 287 288 289 289 289 287 284 283 283 282 281 281 280 279 279 279 278 278 279 280 281 281 281 281 281 281 282 282 282 283 284
306 306 306 307 307 308 309 308 308 307 304 301 300 299 299 297 296 295 295 294 294 294 293 294 293 294 294 293 291 290 289 289 288 287 286 286 285 285 285 285 284 284 283 283 283 283 283 283 283 283 283 282 281 286 287 288 289 288 288 286 284 284 283 282 281 280 280 279 279 279 279 279 279 279 280 280 280 280 280 280 281 281 282 282 283
306 306 307 307 307 308 308 309 306 302 299 299 298 298 296 295 295 294 293 293 293 292 292 293 292 293 292 292 290 289 288 288 287 286 286 285 285 285 285 284 284 284 284 284 284 283 283 283 283 283 282 282 283 286 287 287 288 288 287 284 283 283 282 281 280 279 279 279 279 280 280 281 281 281 282 283 282 281 280 280 279 280 280 281 281
306 307 307 308 309 308 307 304 300 299 297 297 297 295 295 293 292 293 292 291 291 291 291 291 291 291 291 291 290 289 288 287 286 285 285 285 284 284 284 285 283 283 283 283 283 283 283 283 283 283 282 282 283 286 287 287 287 287 285 283 283 282 282 280 279 279 279 279 279 280 281 281 281 280 282 284 284 283 281 280 279 279 279 279 279
306 306 306 306 304 297 297 299 296 295 296 295 294 293 293 291 291 290 290 290 290 290 291 291 290 291 290 290 289 288 287 286 286 285 285 285 285 285 284 284 284 283 282 282 283 283 283 283 283 283 283 282 282 285 287 288 287 286 285 283 282 282 281 281 280 279 279 279 280 281 281 280 280 280 283 284 285 284 281 280 280 279 278 278 279
305 305 304 303 300 298 294 294 295 293 292 293 292 291 291 290 289 289 289 289 289 290 290 290 290 290 290 289 288 288 287 286 285 285 285 284 284 284 284 284 284 284 283 283 283 283 283 283 283 283 283 282 283 285 287 288 287 287 284 283 283 282 280 280 280 280 280 280 280 281 282 281 281 281 283 284 285 284 281 280 280 279 278 278 279
304 301 298 297 293 292 292 292 292 293 290 290 290 290 289 289 289 289 288 288 289 289 290 290 290 289 289 288 287 286 286 285 285 285 285 285 285 284 284 284 283 283 283 282 282 282 281 282 282 282 282 282 282 284 286 287 287 286 285 284 284 282 281 281 281 282 281 281 281 281 282 283 284 284 284 285 285 285 282 280 280 279 278 277 280
297 297 290 293 292 294 293 292 292 290 289 290 290 289 288 289 288 288 287 288 289 290 289 289 289 288 287 287 287 286 285 285 285 285 285 285 284 284 283 283 282 282 282 281 281 281 281 281 281 281 281 281 282 284 285 287 288 287 286 285 284 284 284 284 283 284 284 283 283 283 283 284 285 286 286 286 285 285 284 282 281 279 279 281 282
290 289 290 291 291 290 289 288 288 289 289 289 288 288 288 288 287 287 288 289 289 289 288 288 286 286 286 286 285 285 285 285 285 285 284 283 284 284 283 283 282 281 281 280 280 280 280 280 280 281 280 280 282 284 285 287 288 287 287 286 285 285 285 285 284 284 284 284 284 284 284 284 285 286 285 285 285 284 284 283 283 284 284 284 283
289 288 289 290 289 288 288 287 287 287 288 288 287 286 286 286 286 287 287 287 287 287 286 286 286 285 285 285 285 284 284 284 284 284 283 282 283 283 283 282 281 281 281 280 280 280 280 279 279 279 280 280 281 283 285 285 287 287 287 287 286 285 286 285 284 283 284 283 284 283 283 284 284 283 283 283 283 283 283 282 283 283 283 283 282
290 290 288 289 289 288 287 286 286 287 287 287 286 285 285 286 285 286 286 286 286 286 285 285 284 284 284 284 284 284 284 284 284 283 282 281 282 282 282 282 281 281 280 279 279 280 279 278 278 278 278 278 279 280 282 284 285 287 287 287 287 286 286 284 284 283 283 283 282 282 282 282 282 282 282 282 282 281 281 282 282 282 281 281 280
289 288 287 287 288 286 286 285 285 285 286 285 286 285 285 284 284 285 285 285 284 284 284 283 283 283 283 283 283 283 283 283 283 283 282 282 282 282 281 282 281 281 280 279 279 279 278 278 278 277 278 278 279 279 280 282 283 284 286 286 287 287 286 286 284 284 284 282 282 282 282 281 281 281 280 280 280 280 280 280 279 279 278 277 276
287 286 286 286 286 286 285 284 284 285 285 285 285 285 284 283 284 284 284 284 283 282 282 282 282 282 282 283 282 282 283 283 283 284 283 282 281 281 281 281 281 280 280 279 279 279 279 278 278 278 278 277 277 277 277 279 281 281 282 284 285 285 285 284 283 281 281 281 281 280 280 279 279 279 278 276 277 276 278 277 277 277 274 275 275
286 285 285 285 285 285 284 284 283 284 284 284 284 285 284 284 283 283 283 283 282 282 282 282 282 282 282 282 282 282 282 283 283 283 283 282 282 282 281 281 281 280 280 279 279 279 279 279 279 279 278 277 277 277 277 277 279 279 280 280 281 281 281 281 280 280 279 277 278 278 278 278 277 278 277 277 276 277 275 275 276 276 275 275 275
285 284 284 285 285 284 284 283 282 282 283 283 283 283 283 283 283 283 283 283 282 282 282 282 282 282 282 283 282 280 282 282 282 282 282 281 282 282 281 281 281 280 280 279 279 279 280 280 280 280 279 278 277 277 277 277 277 278 278 279 278 278 278 278 278 276 276 276 275 277 277 275 275 274 275 274 275 274 275 275 275 274 274 275 275
283 283 284 285 285 284 283 282 280 281 281 281 282 282 283 283 283 283 282 282 282 281 281 281 282 282 282 282 282 282 283 282 282 281 281 282 282 282 282 280 281 283 283 282 281 281 281 282 281 279 278 278 277 276 276 278 277 278 277 275 275 275 276 276 277 277 274 274 275 275 275 275 275 275 275 275 275 275 275 274 272 272 272 273 273
284 284 284 284 284 283 281 279 279 279 279 279 279 280 282 282 282 283 283 282 281 281 281 281 281 281 281 281 281 281 281 280 280 278 278 278 279 282 282 281 279 280 281 283 283 281 281 281 279 279 279 278 277 278 280 280 279 279 279 278 278 278 278 277 278 279 277 275 275 275 275 275 275 275 274 274 274 273 273 272 272 273 271 270 271
283 283 283 282 281 279 278 277 277 278 278 278 278 278 280 281 282 282 282 281 281 280 280 280 280 280 280 281 280 280 280 280 280 279 278 277 278 279 281 281 281 280 281 281 281 282 282 281 278 276 279 281 281 281 280 280 279 279 279 279 279 279 280 280 280 278 277 276 275 275 275 275 275 274 273 273 272 271 271 270 270 269 269 269 269
Wind_Speed
5 7 9 10 10 10 9 9 10 11 11 12 14 14 14 14 13 14 12 12 11 10 10 10 10 8 8 9 10 10 10 9 10 10 8 7 8 9 8 8 9 9 8 7 10 8 7 7 7 8 8 9 9 11 11 10 8 8 8 5 9 9 6 6 7 8 9 7 6 5 5 4 4 3 3 3 2 2 2 3 2 3 3 3 3
7 7 9 9 9 10 9 8 10 12 12 13 15 15 14 14 14 13 11 13 13 12 10 10 9 9 9 10 11 10 10 10 11 9 9 8 9 8 9 8 8 9 7 7 7 8 9 8 10 9 9 8 8 6 7 8 10 9 9 8 2 8 8 9 8 9 6 7 8 6 4 3 3 2 2 2 1 2 2 2 2 3 3 3 4
9 11 10 10 10 11 9 9 9 11 11 13 13 13 13 14 13 12 11 12 12 12 10 10 9 8 8 8 9 9 9 10 11 11 9 9 9 8 6 5 7 8 8 8 8 7 9 9 10 9 10 10 9 8 8 11 11 13 12 10 8 3 6 7 10 8 7 7 6 7 5 4 2 2 2 3 2 2 2 3 3 3 3 3 3
12 11 10 10 11 10 9 9 10 10 10 11 12 14 12 12 13 13 12 12 12 12 10 10 9 9 9 8 9 8 9 2 1 3 7 9 10 8 7 5 7 7 9 9 7 8 8 10 10 11 9 12 11 10 11 11 11 10 10 9 12 10 6 8 9 9 7 11 8 6 7 5 3 7 7 4 3 3 3 4 3 3 4 3 2
10 9 8 9 11 11 11 10 9 10 11 11 12 13 10 14 13 14 12 12 11 11 12 10 9 9 7 2 3 5 3 4 4 5 6 7 9 6 7 5 5 6 8 9 9 11 11 9 10 11 12 13 11 10 9 11 9 12 13 12 12 12 10 8 8 8 6 9 4 6 5 5 6 6 9 4 5 4 3 3 3 4 4 4 3
11 10 8 8 10 10 10 11 11 10 11 11 11 12 11 11 12 12 10 10 10 12 12 10 9 10 8 8 9 10 9 9 10 11 9 9 11 7 5 6 6 6 7 8 9 9 11 12 10 11 10 9 10 11 11 11 11 12 13 11 10 8 13 11 10 8 5 11 3 2 2 2 5 8 8 3 5 3 4 3 4 4 3 3 3
7 7 8 8 8 9 10 11 11 11 10 9 9 10 11 10 11 12 10 9 9 10 12 10 10 10 12 13 12 11 11 11 5 5 6 5 5 6 6 6 5 6 6 7 7 8 12 13 12 9 11 10 7 7 10 12 12 12 11 10 11 11 10 11 12 10 5 5 2 1 2 3 4 10 5 6 4 4 4 4 4 3 4 3 4
3 4 6 7 8 8 9 9 9 8 7 8 8 9 11 11 10 11 10 9 9 9 12 11 10 10 12 13 11 12 10 8 8 7 5 6 6 6 4 6 6 4 4 5 6 7 8 9 10 10 9 10 10 10 10 10 10 10 13 12 11 10 11 10 11 9 10 7 5 3 2 0 5 1 3 5 4 6 5 4 3 4 3 4 4
3 3 3 5 6 6 6 6 7 7 8 9 8 8 9 10 10 11 11 10 10 12 11 11 10 10 10 10 11 10 10 9 7 6 6 6 7 6 5 6 6 4 2 4 4 5 4 7 10 10 10 10 10 10 11 12 13 13 12 10 11 9 8 8 9 9 9 7 7 5 3 3 4 1 1 3 2 3 4 6 5 4 2 3 4
2 2 2 2 2 3 2 3 6 6 7 8 8 8 9 9 11 12 13 10 10 12 11 11 12 10 10 11 12 11 10 10 7 9 7 7 7 7 5 4 5 5 3 2 4 4 6 4 7 9 10 12 12 12 12 14 13 14 15 14 13 12 9 10 10 8 9 7 7 5 5 4 3 2 2 2 1 2 3 7 7 7 6 4 4
2 3 3 3 3 3 4 4 5 6 6 7 7 8 9 10 11 12 13 10 10 12 13 13 12 11 11 12 13 13 13 12 12 9 8 7 8 10 5 4 4 3 4 4 3 4 4 4 6 8 5 9 11 11 11 11 11 12 12 13 13 14 11 11 8 8 8 7 8 7 7 6 5 4 6 4 3 2 3 4 5 6 5 5 5
3 3 4 5 4 4 4 5 6 7 7 7 7 7 8 9 10 12 12 12 10 11 12 12 11 11 11 12 13 13 12 7 10 9 8 9 7 7 5 4 4 4 4 5 5 4 4 3 3 5 6 7 8 7 9 11 10 10 11 11 11 12 10 9 8 8 10 6 8 6 6 5 4 3 3 4 4 3 3 5 5 5 3 3 4
3 3 4 5 5 6 6 6 7 8 7 9 9 8 9 9 11 12 12 12 11 10 12 12 12 12 12 12 13 11 9 6 5 6 6 6 6 6 7 7 6 8 7 8 6 6 5 5 5 6 7 6 6 7 7 8 9 10 11 12 11 10 9 8 8 8 10 6 7 5 4 4 3 1 1 3 3 2 3 4 4 5 3 4 3
4 3 3 4 4 5 6 7 7 7 8 8 8 8 8 8 10 12 12 12 11 11 12 13 13 13 12 12 12 11 8 7 6 6 6 6 7 8 10 7 8 9 7 8 6 7 6 8 9 9 7 9 9 9 8 8 8 9 10 10 11 9 7 9 8 6 7 5 5 4 2 3 3 2 2 2 2 2 3 5 5 3 1 3 3
5 6 6 6 5 6 5 6 6 6 7 8 8 8 8 9 10 12 12 12 13 12 11 12 11 12 12 11 12 12 11 8 7 5 6 7 6 7 9 9 7 8 7 6 8 9 9 7 9 10 8 8 7 8 7 7 8 8 6 9 8 7 7 8 5 7 7 5 4 5 3 4 3 3 2 2 2 1 2 5 6 5 2 2 3
7 7 6 6 6 5 5 5 6 6 7 7 9 9 9 9 10 11 12 12 13 13 12 12 11 10 12 14 14 12 9 7 6 6 7 8 8 9 9 8 6 6 5 6 8 8 9 9 9 10 9 8 8 8 8 8 8 7 6 6 7 4 6 6 4 6 6 6 5 4 5 4 4 3 4 3 3 3 3 3 3 4 4 3 3
5 6 6 5 5 6 6 6 6 6 7 8 9 9 10 9 10 11 11 11 12 13 12 10 10 11 12 13 14 13 11 9 9 10 9 9 9 8 7 5 6 7 7 7 7 7 8 9 10 8 9 8 8 8 7 7 7 8 8 8 9 5 6 6 5 6 5 6 4 4 5 5 4 5 5 4 4 3 3 2 1 1 0 0 1
5 5 5 5 6 7 6 6 7 7 8 8 9 9 9 9 10 11 11 13 12 12 12 11 11 12 12 13 14 14 12 8 9 11 9 8 9 7 6 5 7 6 6 6 6 7 6 7 7 9 8 7 8 8 7 5 5 6 6 6 7 7 6 5 5 6 7 6 6 5 5 5 4 5 5 4 3 4 3 3 3 3 2 1 1
5 6 6 6 6 6 7 7 7 7 8 8 8 9 9 9 10 11 12 12 12 11 11 10 11 9 9 11 12 13 13 9 8 8 7 7 8 7 8 8 6 7 7 7 7 7 7 7 7 5 7 8 6 7 8 7 6 6 6 6 6 7 7 6 5 6 6 7 7 7 6 6 5 6 6 5 4 4 3 3 3 3 3 2 1
6 7 6 5 5 6 6 6 7 7 7 7 8 8 9 10 10 10 10 10 11 12 11 12 11 10 9 10 11 11 10 10 9 8 7 10 9 7 7 7 7 7 7 7 8 8 8 9 8 9 8 8 8 6 6 7 8 7 7 7 7 8 8 7 6 5 5 6 8 7 7 6 6 6 5 4 4 4 4 3 3 3 4 2 2
5 4 5 5 5 5 5 5 5 5 5 6 7 8 8 8 10 11 11 12 12 12 11 10 9 10 10 11 10 10 9 8 8 7 8 9 8 8 7 6 6 5 6 8 8 9 9 9 9 10 9 9 9 9 8 7 8 8 7 7 8 9 9 7 8 8 6 7 8 8 7 6 6 6 5 5 5 4 4 3 3 3 2 2 1
6 6 3 4 5 5 5 4 4 5 6 7 7 7 9 10 9 10 10 10 11 12 12 11 10 9 10 10 9 7 8 8 10 8 8 7 7 8 7 5 7 5 7 7 8 8 8 10 10 10 10 10 9 9 9 8 9 8 8 6 8 9 9 9 9 10 8 6 8 9 8 7 6 7 6 6 5 5 4 4 2 2 2 2 0
2 1 1 2 4 5 5 5 6 6 7 8 8 8 9 10 10 10 11 11 11 11 11 11 11 11 11 10 9 8 8 9 11 9 9 8 7 5 7 6 7 6 6 7 8 8 9 9 9 9 10 10 10 9 8 7 8 9 9 9 9 10 10 11 11 10 10 9 9 9 9 8 6 8 6 6 5 5 4 4 4 2 1 2 1
3 1 0 0 1 1 3 6 7 7 8 8 7 8 8 9 10 10 12 11 10 10 10 10 10 10 10 10 11 9 10 10 11 10 10 9 8 6 5 7 7 6 7 6 7 7 7 9 8 9 9 9 10 9 9 8 9 9 9 11 10 10 10 11 11 11 10 10 11 11 9 9 8 8 7 6 5 5 5 4 4 2 1 1 0
3 4 3 3 3 5 5 5 6 7 6 7 8 8 9 9 9 10 10 10 10 10 9 9 9 11 11 11 12 11 10 11 10 8 11 9 8 7 7 9 8 7 7 7 7 6 7 8 8 9 10 10 10 10 10 9 8 8 9 10 10 10 10 11 11 11 11 11 11 11 11 10 9 9 7 7 6 6 5 5 4 3 1 1 1
3 2 2 5 5 4 5 5 5 6 6 7 8 8 8 8 9 9 9 9 10 9 9 9 10 11 11 13 12 11 11 10 10 9 10 10 9 9 9 8 9 8 8 8 8 7 7 10 9 9 9 9 9 9 10 10 9 8 8 9 9 10 10 10 10 10 11 10 11 11 11 10 10 10 9 8 7 7 6 5 4 3 2 2 2
3 3 3 3 6 8 7 6 7 7 8 7 8 8 7 8 10 10 8 9 10 9 9 10 11 11 11 12 12 11 10 11 10 10 10 9 10 9 10 9 8 9 9 7 6 7 8 9 9 9 10 9 9 9 9 9 9 9 9 10 10 10 10 10 10 10 9 9 10 11 11 10 10 9 11 10 8 7 5 5 4 4 3 3 3
5 5 7 9 7 6 8 9 8 8 7 7 6 5 7 8 10 9 9 9 8 10 10 10 10 11 11 11 11 10 9 10 9 10 11 10 9 9 10 9 8 8 6 6 7 8 8 8 9 9 8 8 8 8 8 8 9 10 10 10 11 11 10 9 9 8 8 9 9 10 10 9 9 9 9 8 9 7 5 5 4 4 4 3 4
7 8 8 9 11 12 13 11 9 8 9 9 7 6 7 8 9 8 9 10 9 10 10 10 11 11 11 9 8 8 8 10 10 10 11 11 9 9 9 8 8 8 6 7 7 7 8 8 7 7 7 7 8 8 8 8 9 10 9 10 11 11 11 10 9 8 7 7 8 7 7 7 9 9 8 9 8 7 6 5 4 5 4 5 4
7 8 11 13 15 15 13 12 9 9 10 8 7 8 9 10 10 9 9 9 9 10 10 10 10 10 8 8 8 8 8 8 11 10 11 11 9 9 9 8 9 8 7 7 7 7 7 7 7 7 7 6 6 5 8 13 12 10 10 8 8 10 11 11 10 9 7 7 7 6 7 11 12 10 9 11 10 8 5 3 3 5 5 5 5
9 13 14 15 15 14 14 15 15 15 14 9 7 7 8 10 10 9 9 9 9 9 9 9 10 8 8 8 8 8 8 9 10 10 10 10 9 9 9 9 8 8 8 7 7 7 7 6 7 7 7 6 6 6 11 13 15 13 11 11 12 11 10 10 10 10 8 8 6 7 7 8 8 7 7 10 8 7 6 7 8 7 6 6 5
17 17 16 16 15 14 15 17 18 15 12 10 9 9 9 11 9 9 8 8 8 9 9 9 8 8 8 9 8 8 9 9 9 10 10 6 7 7 7 6 6 6 7 7 7 8 7 7 6 6 7 7 6 9 8 12 15 16 12 9 9 8 9 9 10 10 9 8 8 6 6 5 6 7 6 6 5 7 8 10 11 12 13 14 11
20 20 20 19 19 18 20 19 15 12 11 11 11 9 12 12 8 8 7 8 9 9 8 8 8 8 9 9 8 9 9 9 9 9 7 7 7 7 7 7 7 6 6 7 7 8 8 7 7 8 8 6 6 10 10 11 11 12 12 11 7 10 9 8 9 9 10 9 9 8 7 5 5 8 7 5 5 4 7 11 12 13 13 14 15
19 20 21 21 19 17 16 14 11 10 10 9 9 10 8 6 6 7 9 8 8 8 8 8 8 8 8 8 8 7 8 9 8 7 7 8 8 8 6 5 6 6 7 7 5 7 6 7 8 7 7 6 6 10 12 11 10 9 12 9 8 9 7 9 10 10 9 8 8 10 9 7 5 6 5 5 4 4 4 4 6 7 7 10 14
20 21 21 20 19 18 15 4 7 8 5 5 4 4 4 5 6 7 7 8 7 7 7 7 8 8 8 8 8 9 9 7 8 8 8 9 10 7 8 6 7 7 8 9 9 8 6 5 5 5 5 5 5 11 13 12 10 11 11 9 6 6 5 6 7 9 10 10 10 9 9 9 8 7 6 6 5 5 4 4 6 7 9 9 8
20 20 19 18 18 18 17 14 3 5 5 4 5 5 5 6 6 7 7 7 7 7 7 7 7 7 8 7 8 6 6 7 9 8 9 9 9 9 8 7 6 5 3 3 2 4 5 6 5 6 5 5 4 14 12 14 14 14 11 5 5 6 6 6 7 8 8 8 8 8 7 7 7 6 8 11 7 4 4 7 8 9 8 9 10
21 20 19 18 15 12 5 2 4 3 5 4 4 5 6 6 6 5 6 6 6 6 6 6 6 6 7 6 6 8 5 6 8 8 8 8 8 8 6 4 7 5 5 6 5 5 5 5 6 6 6 5 4 11 14 15 15 15 9 4 5 5 7 7 7 8 7 7 7 7 7 6 6 6 8 10 10 9 6 7 8 10 9 9 10
19 17 15 10 2 1 3 3 5 5 4 5 6 7 7 6 6 5 6 5 5 6 6 6 6 6 6 6 6 7 6 6 8 9 8 7 7 5 5 6 6 7 6 6 5 5 4 5 6 6 6 6 5 9 14 16 16 16 9 7 6 7 7 8 6 5 5 5 6 7 6 6 6 6 8 10 10 9 7 7 8 9 11 11 8
14 14 13 8 3 2 3 4 4 6 6 6 7 8 7 6 6 6 6 6 6 6 7 7 7 6 6 6 6 6 7 7 8 8 8 8 7 6 5 6 5 5 6 5 5 5 5 5 5 5 7 7 6 10 15 17 18 17 11 7 7 7 8 6 6 6 4 4 5 6 8 7 6 6 9 10 12 10 7 7 7 8 10 11 7
8 2 1 1 3 3 2 4 5 5 7 7 7 6 5 7 6 6 6 6 6 6 6 6 6 6 6 6 5 7 7 8 8 7 6 7 6 5 7 6 6 4 4 4 4 4 6 3 4 4 5 5 6 6 10 16 16 16 13 8 6 7 7 7 6 6 6 4 4 4 7 10 10 10 11 11 12 13 9 6 5 6 8 10 5
4 1 3 2 2 2 3 2 2 4 5 5 5 7 5 6 6 5 4 5 5 5 6 6 6 6 4 4 5 6 8 6 7 8 7 6 5 7 7 8 7 6 6 5 6 5 5 5 4 4 4 4 6 7 9 14 15 15 13 10 6 6 6 6 6 6 5 5 4 4 4 9 12 12 11 12 12 12 11 6 4 5 6 8 10
4 3 1 2 2 2 3 4 4 4 4 4 4 5 6 6 5 4 5 5 6 6 6 6 4 4 4 5 5 5 6 6 7 8 7 6 5 7 7 7 5 6 8 7 6 5 4 4 3 4 4 4 4 8 8 13 15 15 14 11 6 5 6 7 6 5 4 3 4 3 4 8 12 10 9 8 8 8 10 6 6 11 15 17 11
1 1 2 2 3 3 3 4 3 3 3 4 5 5 4 4 4 5 5 6 6 6 6 5 5 6 6 7 6 7 6 5 6 6 8 7 7 6 7 6 7 7 7 7 6 5 5 4 4 3 3 3 3 4 9 9 14 15 15 10 9 7 9 5 4 4 4 3 2 2 2 7 6 4 2 2 4 7 7 6 11 12 12 13 10
1 2 4 4 4 5 5 4 4 4 4 3 5 6 5 5 5 5 5 5 5 4 5 7 7 8 8 7 7 7 7 6 7 7 7 8 7 7 7 5 6 7 6 6 4 4 4 5 4 4 4 4 3 4 5 6 7 10 10 10 9 9 8 4 3 2 2 2 2 1 4 10 7 6 3 2 1 1 0 4 6 8 10 9 6
2 2 3 2 4 7 6 6 5 5 5 4 4 8 7 7 5 5 4 5 6 7 8 8 8 7 7 6 6 6 6 6 6 7 7 6 7 8 6 5 6 6 6 6 6 5 5 5 5 5 4 4 3 3 3 4 5 4 8 9 9 8 7 7 3 2 2 5 11 14 13 11 10 8 6 3 2 2 6 6 7 8 7 3 3
1 1 2 1 4 4 5 6 6 5 5 4 3 6 10 6 7 6 6 7 8 9 9 9 7 7 7 7 8 7 6 7 6 5 6 6 7 6 6 6 5 5 5 5 6 6 6 5 5 5 5 4 3 3 3 3 4 3 3 6 6 6 3 3 8 9 13 13 11 11 11 8 6 4 1 0 0 1 3 3 3 3 1 2 3
1 0 1 1 3 4 5 4 6 4 4 4 5 4 5 6 6 6 8 9 9 10 10 8 8 7 7 7 7 6 6 6 5 6 6 6 5 5 5 5 5 5 5 5 5 6 6 5 5 5 5 4 4 3 3 3 3 3 3 3 3 4 10 10 7 5 7 7 6 5 4 6 4 5 5 4 3 2 1 0 1 2 2 1 1
2 2 1 1 1 3 4 4 4 4 3 3 4 5 5 6 7 8 8 9 10 9 8 8 9 8 6 6 6 8 8 6 5 5 6 5 4 4 5 5 5 5 6 6 6 6 6 6 6 6 5 5 4 4 4 4 5 4 4 4 3 4 3 3 4 4 4 5 6 6 6 4 3 2 3 2 2 2 1 1 1 2 2 3 4
2 2 2 2 2 5 5 5 4 3 4 5 6 5 5 6 8 8 8 10 9 10 10 10 8 7 7 6 7 6 6 6 6 6 6 4 3 4 4 4 5 2 2 4 5 4 3 4 4 5 5 5 4 4 3 5 6 7 6 5 4 4 3 3 7 10 7 3 4 3 3 3 3 2 2 1 1 0 1 1 2 1 1 2 2
2 2 2 4 4 6 8 7 4 4 5 6 6 5 6 7 7 7 8 10 9 9 9 8 7 7 7 7 6 6 6 7 7 6 5 7 13 13 7 4 3 7 11 11 6 2 3 4 5 3 2 3 3 4 11 14 13 12 11 11 9 10 9 7 11 13 7 4 3 3 2 2 1 1 1 0 0 0 0 1 1 2 2 2 2
3 4 3 4 4 6 7 7 4 5 7 8 8 6 6 5 6 6 8 10 11 8 7 7 7 7 7 7 6 7 6 6 6 6 5 7 7 10 15 14 11 10 10 11 11 12 11 10 8 5 7 14 14 15 15 14 14 13 12 13 13 12 12 12 12 7 4 4 3 2 2 2 2 1 2 2 1 1 0 0 0 1 1 1 1
Wind_Direction
216 171 159 173 174 175 177 180 187 191 193 192 193 194 194 192 186 191 188 189 189 189 190 189 189 187 201 206 212 212 210 198 204 210 204 203 198 193 187 192 188 188 178 180 177 160 154 158 159 169 165 170 178 173 168 159 147 141 136 135 134 125 126 138 139 134 128 114 110 106 98 79 78 90 97 97 109 125 121 120 123 115 109 98 86
162 168 176 175 172 170 170 177 184 189 197 196 196 196 195 195 194 192 186 191 196 194 188 189 188 190 190 200 207 206 206 204 205 202 205 205 201 195 194 199 189 186 175 170 171 164 158 157 166 166 167 173 178 168 159 149 146 149 147 128 140 139 145 162 155 144 150 152 148 145 126 115 96 99 107 109 113 108 127 117 126 122 117 115 116
201 212 190 180 168 170 175 181 191 200 195 199 200 195 195 197 199 194 192 192 196 193 186 188 188 189 197 204 201 203 210 214 214 209 200 199 200 192 186 192 191 186 173 167 167 171 159 161 165 166 171 169 166 167 164 163 164 162 164 150 146 145 137 162 169 182 146 146 138 130 160 159 166 179 164 167 158 152 142 135 127 128 131 136 127
237 230 209 176 168 174 178 186 192 192 197 197 197 199 197 199 197 195 193 193 194 193 187 186 183 182 199 218 207 209 206 142 101 141 185 196 198 189 187 188 190 183 178 173 169 175 171 171 166 171 172 175 173 166 169 173 168 163 167 165 149 143 163 178 192 200 157 153 161 200 169 178 165 213 180 170 166 161 164 154 153 143 144 143 141
241 235 227 183 173 183 187 187 180 188 195 197 196 197 198 199 196 195 194 193 193 185 182 178 171 180 177 115 129 97 95 176 189 207 199 197 200 184 189 183 192 176 187 174 175 178 181 178 174 174 178 181 178 168 164 169 168 174 168 163 167 155 166 175 198 215 195 188 149 154 142 213 231 151 150 161 168 172 175 165 155 167 158 164 138
241 242 233 206 186 183 182 180 185 192 197 198 196 198 197 197 197 194 197 194 195 190 180 176 178 181 164 181 194 202 204 196 199 199 190 193 201 187 156 181 191 191 185 179 182 179 181 181 178 174 174 184 183 180 175 171 172 171 177 170 175 176 159 169 184 202 225 205 261 341 329 242 178 140 156 167 169 195 153 174 171 181 166 166 153
217 222 223 217 204 187 182 183 190 195 199 190 191 197 199 198 196 195 197 196 194 190 180 179 182 184 193 203 206 205 206 208 199 193 182 174 172 164 175 178 198 194 186 177 175 180 187 182 176 169 173 172 177 174 179 180 179 181 176 183 178 171 168 172 180 182 200 244 207 207 342 300 108 139 189 111 169 176 187 181 185 180 189 180 162
219 216 216 217 217 205 198 190 189 197 187 181 187 193 198 199 195 196 195 194 189 190 184 186 183 189 198 209 213 217 217 206 192 195 168 164 174 173 167 186 193 205 182 173 174 181 181 172 164 166 168 177 171 177 183 182 181 186 185 183 178 180 180 179 182 178 185 194 178 173 240 4 147 309 155 166 147 158 183 181 170 173 187 199 182
194 196 208 202 206 209 209 197 188 183 178 180 184 188 193 199 197 197 198 194 193 189 187 187 187 193 200 208 216 220 220 219 196 190 162 161 173 164 177 187 189 195 192 170 173 176 185 174 167 170 174 174 177 180 182 182 185 179 181 177 187 190 188 189 183 181 189 186 157 192 196 175 166 169 241 218 151 156 156 176 176 166 208 209 190
173 187 148 138 148 158 174 166 168 176 171 178 180 184 191 195 199 199 201 196 193 189 186 183 189 199 207 208 215 214 210 215 198 196 179 162 179 171 176 172 182 181 173 152 174 189 188 188 180 175 177 178 181 184 181 185 188 188 183 183 183 190 193 201 192 181 183 181 170 169 183 161 161 167 217 201 189 215 168 183 174 171 184 195 178
132 142 146 140 127 142 151 176 171 162 168 179 184 186 189 194 198 202 202 199 195 192 190 188 191 200 210 211 213 214 210 211 210 198 173 165 189 193 170 173 163 163 172 182 165 166 170 184 195 195 183 184 186 188 186 185 188 189 189 190 190 190 193 202 190 179 177 183 172 182 191 184 175 183 182 185 178 173 131 150 152 177 177 155 176
137 146 146 155 158 172 173 188 184 174 171 182 185 187 191 196 197 199 202 202 198 198 194 188 190 200 209 213 216 218 215 191 202 195 177 177 174 181 166 164 170 161 162 184 186 157 143 147 145 204 195 186 190 197 195 193 191 189 188 193 198 198 200 200 184 173 180 176 178 187 191 186 193 187 181 175 187 182 172 147 154 153 191 151 132
179 169 160 171 181 171 184 187 177 182 185 186 186 186 190 195 197 201 204 201 203 195 196 196 195 200 207 213 219 220 221 192 185 193 186 167 170 171 177 191 186 194 198 195 192 170 160 157 172 189 197 189 188 199 204 195 191 193 191 193 201 198 199 193 187 179 178 171 176 183 187 179 183 59 109 160 186 163 158 125 130 155 157 133 142
216 210 209 218 222 206 192 184 183 183 186 185 186 186 189 192 196 201 203 200 202 198 196 198 203 204 204 209 216 217 219 208 190 188 177 173 183 179 190 185 192 199 184 198 171 174 180 195 192 197 199 188 181 198 198 191 186 190 193 194 199 199 200 200 190 167 172 161 158 154 152 141 95 90 77 104 110 118 139 131 131 146 171 147 137
215 224 229 232 224 207 196 190 184 182 180 181 183 187 189 194 197 198 201 200 201 200 197 201 203 207 207 207 214 218 219 207 194 189 173 182 187 183 191 195 188 194 187 188 177 191 194 187 195 200 195 190 184 188 195 192 189 185 194 197 204 200 196 188 171 156 160 147 138 146 123 95 103 99 121 90 85 101 111 130 142 142 158 167 162
226 227 226 217 205 191 185 184 186 182 181 178 186 187 191 195 195 199 199 199 200 202 206 203 207 209 215 219 219 216 216 196 188 186 195 194 200 201 201 193 180 174 172 177 190 187 194 191 190 199 193 187 188 188 188 188 188 187 188 190 198 185 184 182 151 146 149 148 135 119 114 98 95 92 81 86 71 72 77 106 150 158 159 193 173
221 225 230 207 179 185 184 180 180 182 184 187 188 190 191 191 193 197 199 202 203 204 207 202 203 210 217 220 221 219 212 188 190 194 190 189 201 205 201 186 187 192 190 185 175 181 196 199 194 180 184 186 182 188 189 188 185 188 188 185 186 167 172 169 142 151 139 135 128 130 116 114 104 101 90 89 93 77 70 75 56 98 18 281 188
229 233 217 201 187 181 176 179 181 182 185 187 190 189 192 194 194 194 197 201 202 201 204 203 203 211 214 216 220 224 223 201 195 195 191 177 197 196 197 188 192 184 172 177 171 171 184 189 195 183 182 182 185 183 187 188 178 193 194 185 177 163 161 146 139 140 143 137 130 115 113 110 113 98 93 91 90 86 87 77 74 58 40 51 2
200 212 207 197 192 183 178 176 179 184 187 188 187 188 190 196 196 199 200 201 199 200 200 203 206 209 213 214 217 221 224 210 197 193 182 176 178 181 188 192 177 178 162 155 164 166 174 175 180 167 179 184 181 183 181 181 177 183 178 172 154 160 161 156 145 140 142 139 134 122 115 113 108 102 97 90 86 89 87 79 71 65 56 42 41
190 199 198 194 181 174 169 168 175 181 184 189 187 188 195 197 198 203 205 202 202 200 196 202 204 206 208 215 219 223 215 209 197 191 192 200 204 193 182 185 180 159 163 155 162 176 176 178 181 182 184 177 177 178 177 178 180 187 178 175 168 162 160 153 142 135 140 141 135 129 126 124 121 113 106 100 93 74 73 82 78 77 78 48 43
256 197 183 178 156 148 149 157 160 166 179 183 190 195 197 198 202 202 202 202 203 201 197 201 200 208 208 209 216 214 205 201 190 188 189 199 200 194 194 182 149 161 151 167 176 180 181 182 178 183 183 180 179 178 177 177 186 183 181 171 161 165 159 152 141 139 142 143 139 128 121 118 122 116 114 109 97 90 81 78 79 95 99 86 78
255 266 220 143 145 150 149 146 145 164 185 190 193 195 200 203 203 200 203 208 203 201 196 192 198 206 211 214 215 215 203 186 203 202 202 198 197 199 192 160 164 155 169 176 185 181 179 181 183 183 182 183 182 182 177 177 188 180 176 164 165 165 160 150 148 151 151 144 134 127 122 120 115 111 113 107 110 112 106 107 104 95 90 111 75
245 269 104 129 158 160 160 169 179 192 194 191 193 201 204 204 201 201 201 207 206 203 197 194 195 200 204 206 209 199 187 195 198 203 201 202 201 171 167 168 173 171 173 188 186 184 179 179 184 187 183 183 183 180 180 180 189 182 172 166 168 168 163 157 157 157 151 143 133 130 127 120 112 109 107 108 113 114 111 114 103 83 80 92 91
230 249 316 45 300 166 159 176 187 196 200 195 198 204 207 208 205 201 203 202 201 203 198 196 197 200 201 205 207 200 190 192 204 206 212 205 195 166 165 182 185 170 181 191 189 176 172 184 187 189 186 184 181 180 180 187 191 186 177 171 170 169 165 163 161 155 151 147 140 130 132 130 126 124 125 123 120 119 121 112 103 86 72 70 99
207 217 219 208 218 228 219 200 197 199 194 195 201 205 208 210 206 205 204 198 199 200 196 196 196 199 203 207 208 202 189 189 193 195 206 203 197 186 179 188 183 181 187 182 188 168 174 183 191 192 187 187 187 180 179 184 191 187 180 173 171 167 165 163 158 155 152 148 145 141 142 139 139 133 137 135 135 129 118 104 104 100 127 183 151
263 248 238 237 225 226 239 223 210 207 200 200 202 206 209 217 215 207 199 192 198 198 195 190 193 198 204 206 206 200 192 186 185 181 189 194 196 197 189 190 188 189 189 191 182 175 177 188 195 197 193 189 188 187 184 184 186 182 175 175 169 164 161 156 154 154 153 151 145 142 143 148 150 153 146 133 134 132 116 113 121 146 167 188 209
272 280 267 266 247 238 231 223 219 209 204 201 201 196 205 212 218 209 200 196 195 192 196 196 196 200 202 204 203 201 194 192 186 186 187 190 196 192 191 187 182 190 189 175 165 171 185 191 197 198 197 188 188 194 190 184 181 179 176 171 163 158 156 153 154 151 147 141 143 146 151 154 157 144 134 144 142 131 128 136 157 169 181 189 218
240 221 237 246 252 258 247 230 217 214 205 208 196 189 209 212 215 204 199 200 196 189 195 200 198 201 205 204 202 200 194 189 186 184 188 195 193 182 179 181 178 184 174 172 173 179 187 194 198 197 196 187 189 195 196 187 178 175 175 173 164 156 149 141 141 144 145 145 143 143 147 153 142 138 146 148 137 135 137 151 168 166 182 194 218
238 235 230 216 231 243 239 230 213 202 210 209 185 185 208 224 217 198 195 205 194 188 196 199 201 205 207 201 198 197 194 189 185 182 187 192 187 182 179 179 183 188 181 185 183 186 186 196 202 197 191 188 194 197 196 187 178 176 176 168 160 152 149 144 142 138 131 122 118 118 116 122 123 118 125 123 121 129 144 165 185 173 193 202 221
245 251 251 241 239 232 225 228 211 208 220 210 188 185 199 213 214 197 196 204 194 194 193 199 205 207 202 196 194 187 186 176 181 190 190 191 185 179 177 180 182 182 178 175 174 177 187 190 190 193 194 190 198 199 201 192 182 172 168 162 151 154 154 149 142 132 116 112 110 111 122 128 129 129 125 116 121 127 149 170 178 183 199 213 221
245 256 255 256 252 246 240 235 230 217 210 203 196 184 188 211 214 194 196 198 196 193 193 198 205 199 194 196 197 184 176 182 185 185 190 191 172 165 175 179 179 177 166 162 168 177 186 186 188 189 192 196 200 202 200 192 188 176 166 165 162 155 148 144 144 139 133 130 116 115 122 122 121 131 131 128 137 155 191 218 235 241 235 217 225
257 255 256 256 257 255 247 243 240 231 209 196 196 191 191 215 205 192 188 181 195 198 193 200 198 190 191 194 194 179 180 182 178 185 188 182 167 171 179 175 173 173 170 153 168 183 183 188 191 194 202 202 207 205 183 184 184 182 173 157 152 149 152 152 149 145 141 135 133 129 123 128 148 155 138 133 152 189 211 223 231 237 239 244 243
260 259 257 259 258 258 258 252 242 221 213 206 205 197 209 211 192 184 163 181 191 193 192 198 198 189 193 192 191 184 181 177 175 168 173 170 168 167 172 168 174 175 163 173 170 179 183 185 190 194 201 198 208 187 171 174 171 165 161 162 159 153 149 151 150 148 143 137 137 133 129 138 148 134 122 131 142 186 220 230 240 244 246 243 244
258 258 258 257 257 255 255 251 231 214 211 205 190 201 207 187 172 161 171 181 183 188 190 192 193 191 188 187 185 173 176 171 164 165 165 168 168 174 162 156 163 158 169 173 168 180 176 182 188 192 192 193 201 182 170 162 158 157 162 156 152 151 150 148 147 145 140 137 142 145 145 153 156 142 138 143 166 183 206 223 232 234 235 239 241
257 257 258 261 262 261 256 189 202 195 162 134 148 157 142 147 164 167 172 171 181 180 188 190 191 190 185 182 176 169 170 164 164 161 161 167 170 151 165 163 167 170 174 179 181 182 182 176 173 177 188 189 190 164 163 158 145 152 154 151 147 143 131 126 127 139 147 149 149 151 157 156 158 163 160 163 160 185 199 229 249 253 252 253 250
261 261 262 262 262 260 254 245 180 131 143 144 155 147 159 174 163 168 164 171 172 179 185 186 189 189 187 181 169 168 162 150 152 153 160 164 161 161 136 153 159 157 139 118 129 159 168 169 170 174 182 187 166 164 160 157 166 158 146 131 138 134 127 123 123 125 132 139 149 154 153 151 155 160 171 181 183 175 220 240 251 257 258 257 256
264 264 264 263 264 271 289 52 102 118 116 144 136 145 166 157 159 161 153 160 164 174 184 183 182 183 180 174 155 157 158 142 152 154 162 163 161 159 149 127 149 148 146 165 170 168 168 167 164 170 176 177 151 166 160 161 157 149 138 126 129 128 129 134 137 141 137 141 148 159 152 146 155 159 173 191 207 206 226 238 250 259 261 262 266
264 268 267 272 308 72 87 107 115 134 141 138 151 160 161 150 147 144 145 158 165 179 179 177 180 176 169 169 161 161 155 149 152 160 161 160 157 144 136 150 147 159 164 162 154 149 152 165 167 173 177 172 158 162 161 157 149 150 150 148 147 140 139 132 130 126 125 143 157 155 145 149 157 166 170 200 214 216 232 237 247 260 267 268 276
260 261 264 249 205 148 125 134 155 161 154 151 155 153 146 143 143 148 155 162 175 178 175 173 173 168 165 160 147 151 151 152 158 161 159 154 156 149 140 144 148 134 143 137 148 147 149 157 168 168 167 165 156 165 165 161 157 159 150 147 144 142 142 141 135 139 141 143 157 168 168 167 163 169 192 207 218 217 231 234 244 257 268 275 285
272 318 27 67 87 102 151 171 188 167 132 151 147 145 139 141 146 146 159 172 173 170 165 163 160 157 152 142 144 150 151 153 155 149 147 144 134 121 134 132 136 130 121 134 141 126 150 120 144 148 156 156 151 160 169 166 159 153 150 149 148 142 146 145 147 149 155 165 162 172 186 198 201 207 215 220 226 227 228 239 243 255 269 278 296
348 340 84 120 154 197 214 178 128 112 128 140 143 127 137 133 133 144 164 160 154 147 148 148 143 138 130 131 135 146 143 140 142 140 136 131 130 134 135 141 142 140 139 134 144 129 130 112 115 122 138 145 153 151 162 166 156 153 148 144 151 153 144 140 142 146 163 164 166 177 177 194 211 220 225 230 236 244 251 254 243 248 252 272 288
36 53 134 147 141 117 85 76 79 116 127 137 131 128 124 126 134 140 141 133 131 135 134 128 124 115 111 110 110 110 118 122 123 127 127 116 116 124 135 136 124 132 142 140 138 137 131 132 132 134 141 145 155 155 156 165 157 152 155 148 145 140 135 139 142 151 155 161 165 163 185 189 203 217 227 238 252 262 268 268 270 277 285 289 292
154 187 210 165 130 125 111 101 101 115 119 122 121 116 104 112 113 115 112 117 120 119 112 106 103 105 108 107 109 112 111 112 119 124 123 117 121 121 128 133 134 134 131 138 144 139 126 123 114 94 71 95 120 140 154 161 163 160 159 145 125 121 136 135 144 145 142 143 155 132 116 137 161 176 190 232 268 277 280 276 281 287 296 308 319
194 182 169 179 142 125 117 108 102 93 88 90 115 111 112 107 104 102 99 98 101 97 94 99 95 99 104 104 109 111 111 116 121 118 118 125 131 129 130 128 135 138 132 129 129 122 117 109 109 98 88 69 74 86 67 90 131 140 150 152 150 146 151 133 128 113 105 111 128 146 97 100 94 92 93 84 72 63 279 297 302 304 315 316 304
215 172 148 184 151 139 128 117 105 97 100 97 116 124 121 114 110 111 111 103 100 101 101 96 99 100 97 100 101 103 108 111 114 122 122 118 120 131 128 126 132 130 135 133 134 131 131 135 130 137 133 126 112 88 94 100 109 142 171 178 183 177 162 147 123 138 101 77 88 93 95 97 102 106 114 135 180 252 284 301 323 334 342 316 304
37 81 180 126 101 111 125 121 113 108 106 107 115 136 132 129 127 124 117 116 115 111 106 108 105 100 105 107 103 98 101 108 109 111 111 121 130 135 129 135 131 127 128 129 138 141 141 141 142 141 137 126 108 106 105 105 140 103 153 182 177 185 186 124 85 91 96 98 92 93 100 107 118 122 134 131 347 34 24 360 341 360 11 360 0
242 216 81 88 138 127 129 117 116 113 103 106 109 105 111 120 122 119 121 122 119 117 114 114 113 108 111 114 113 116 113 111 110 107 113 122 128 121 124 131 134 135 137 137 137 141 140 145 151 148 135 128 139 139 136 142 133 137 143 151 167 113 91 101 111 113 99 95 95 95 101 108 107 113 110 106 124 124 140 54 56 28 16 355 351
79 92 48 49 92 69 96 92 92 92 94 96 98 102 111 111 113 118 122 120 119 121 115 111 118 120 119 120 113 112 115 116 110 110 116 118 114 124 130 136 149 150 150 150 152 156 156 159 154 145 143 143 152 158 157 153 147 138 126 117 108 101 113 112 108 103 97 94 103 120 119 122 125 163 164 155 126 85 75 76 38 22 10 5 352
118 125 97 158 134 101 98 84 77 64 70 66 74 87 104 103 115 125 129 126 123 120 118 118 119 119 113 114 119 123 117 112 109 87 66 65 120 135 113 73 36 50 126 152 152 143 145 144 131 137 143 153 156 163 161 129 133 136 125 118 121 123 120 114 118 118 108 112 122 132 146 155 151 120 91 89 77 42 2 51 89 39 25 355 345
128 131 114 90 95 103 116 110 106 100 97 97 108 110 109 123 125 130 132 127 122 116 122 120 121 119 124 125 123 115 112 114 111 105 97 74 55 57 62 94 89 65 61 54 67 114 122 123 108 79 90 143 156 128 129 130 134 130 126 127 129 132 133 130 137 136 135 140 148 128 126 120 116 120 122 219 141 219 355 38 10 36 23 7 335
154 130 114 111 104 109 107 121 131 122 115 120 120 122 119 125 132 136 136 134 136 131 126 131 130 136 137 130 123 124 126 117 118 116 104 102 93 69 70 75 82 80 82 85 88 88 89 97 114 112 87 95 108 122 127 124 126 126 127 126 127 129 130 135 140 136 143 138 143 133 141 141 148 160 158 145 125 118 33 52 13 37 359 331 343